FW1194 Weather Reports


Display with metric or nautical units.
time (UTC)temp
F
wind
direction
speed
MPH
gust
MPH
rain 1hr
in
rain 24hr
in
rain mn
in
humidity
%
barometer
mb
20260510230217 64 338 4.0 6.0 0.00 0.00 0.00 25 1017.7
20260510225217 64 270 4.0 7.0 0.00 0.00 0.00 27 1017.8
20260510224217 63 315 3.0 6.0 0.00 0.00 0.00 27 1017.8
20260510223217 63 270 7.0 9.0 0.00 0.00 0.00 26 1017.9
20260510222258 64 315 5.0 10.0 0.00 0.00 0.00 25 1017.7
20260510221217 65 293 9.0 11.0 0.00 0.00 0.00 25 1017.7
20260510220217 66 270 7.0 10.0 0.00 0.00 0.00 24 1017.6
20260510215217 65 293 9.0 13.0 0.00 0.00 0.00 25 1017.6
20260510214217 65 270 6.0 9.0 0.00 0.00 0.00 24 1017.5
20260510213218 65 270 7.0 10.0 0.00 0.00 0.00 25 1017.4
20260510212217 65 293 4.0 7.0 0.00 0.00 0.00 24 1017.3
20260510211238 65 293 3.0 9.0 0.00 0.00 0.00 26 1017.5
20260510210217 64 270 5.0 9.0 0.00 0.00 0.00 29 1017.2
20260510205217 64 315 6.0 10.0 0.00 0.00 0.00 27 1017.5
20260510204217 64 0 4.0 9.0 0.00 0.00 0.00 28 1017.6
20260510203217 63 0 5.0 11.0 0.00 0.00 0.00 29 1017.8
20260510202217 63 270 3.0 7.0 0.00 0.00 0.00 29 1017.9
20260510201217 63 315 5.0 9.0 0.00 0.00 0.00 29 1017.9
20260510200217 63 293 6.0 10.0 0.00 0.00 0.00 27 1018.0
20260510195237 64 338 4.0 8.0 0.00 0.00 0.00 29 1018.0
20260510194217 64 315 7.0 12.0 0.00 0.00 0.00 29 1017.9
20260510193217 65 248 10.0 12.0 0.00 0.00 0.00 29 1017.9
20260510192217 64 270 10.0 13.0 0.00 0.00 0.00 29 1018.0
20260510191217 64 270 8.0 12.0 0.00 0.00 0.00 29 1018.1
20260510190217 64 270 10.0 13.0 0.00 0.00 0.00 27 1018.1
20260510185217 64 270 10.0 16.0 0.00 0.00 0.00 28 1018.0
20260510184237 63 270 4.0 8.0 0.00 0.00 0.00 30 1017.9
20260510183217 63 225 6.0 8.0 0.00 0.00 0.00 28 1017.9
20260510182257 63 0 7.0 12.0 0.00 0.00 0.00 27 1017.9
20260510181237 63 315 4.0 6.0 0.00 0.00 0.00 28 1017.8
20260510180216 63 315 5.0 9.0 0.00 0.00 0.00 28 1017.9
20260510175217 63 315 7.0 20.0 0.00 0.00 0.00 29 1017.9
20260510174217 63 293 4.0 6.0 0.00 0.00 0.00 27 1018.0
20260510173216 63 270 8.0 14.0 0.00 0.00 0.00 31 1018.2
20260510172217 62 270 7.0 9.0 0.00 0.00 0.00 31 1018.1
20260510171217 61 315 2.0 5.0 0.00 0.00 0.00 31 1018.2
20260510170217 61 270 6.0 10.0 0.00 0.00 0.00 30 1018.3
20260510165217 60 203 2.0 4.0 0.00 0.00 0.00 30 1018.2
20260510164217 60 270 8.0 11.0 0.00 0.00 0.00 31 1018.1
20260510163238 60 23 5.0 8.0 0.00 0.00 0.00 33 1018.0
20260510162216 61 0 3.0 8.0 0.00 0.00 0.00 33 1018.0
20260510161217 60 293 5.0 8.0 0.00 0.00 0.00 33 1018.1
20260510160217 60 270 8.0 12.0 0.00 0.00 0.00 32 1017.9
20260510155216 62 248 6.0 10.0 0.00 0.00 0.00 34 1017.9
20260510154217 61 0 3.0 5.0 0.00 0.00 0.00 34 1017.8
20260510153216 61 0 2.0 4.0 0.00 0.00 0.00 34 1017.7
20260510152217 60 248 3.0 4.0 0.00 0.00 0.00 35 1017.7
20260510151216 59 225 3.0 5.0 0.00 0.00 0.00 34 1017.6
20260510150217 59 203 5.0 6.0 0.00 0.00 0.00 33 1017.7
20260510145237 59 90 3.0 4.0 0.00 0.00 0.00 34 1017.7
20260510144217 58 90 3.0 5.0 0.00 0.00 0.00 34 1017.7
20260510143236 58 45 3.0 4.0 0.00 0.00 0.00 32 1017.7
20260510142217 57 68 1.0 3.0 0.00 0.00 0.00 33 1017.8
20260510141216 57 90 4.0 7.0 0.00 0.00 0.00 35 1017.7
20260510140216 56 68 3.0 6.0 0.00 0.00 0.00 35 1017.6
20260510135216 55 113 3.0 6.0 0.00 0.00 0.00 37 1017.6
20260510134216 55 68 4.0 9.0 0.00 0.00 0.00 39 1017.4
20260510133216 55 90 3.0 5.0 0.00 0.00 0.00 39 1017.2
20260510132216 54 90 8.0 10.0 0.00 0.00 0.00 37 1017.2
20260510131218 53 90 4.0 7.0 0.00 0.00 0.00 39 1017.1
20260510130217 52 68 6.0 7.0 0.00 0.00 0.00 41 1017.2
20260510125216 52 90 3.0 3.0 0.00 0.00 0.00 48 1017.1
20260510124216 50 23 2.0 3.0 0.00 0.00 0.00 58 1016.8
20260510123216 49 68 2.0 3.0 0.00 0.00 0.00 63 1016.6
20260510122216 48 90 2.0 4.0 0.00 0.00 0.00 67 1016.5
20260510121216 46 0 2.0 3.0 0.00 0.00 0.00 69 1016.2
20260510120216 44 0.0 2.0 0.00 0.00 0.00 74 1016.1
20260510115216 43 23 1.0 2.0 0.00 0.00 0.00 78 1016.0
20260510114216 41 68 2.0 3.0 0.00 0.00 0.00 80 1015.8
20260510113216 40 90 1.0 1.0 0.00 0.00 0.00 80 1015.6
20260510112216 39 45 1.0 2.0 0.00 0.00 0.00 80 1015.7
20260510111216 39 0.0 0.0 0.00 0.00 0.00 79 1015.6
20260510110216 39 0.0 1.0 0.00 0.00 0.00 79 1015.3
20260510105216 39 0.0 1.0 0.00 0.00 0.00 78 1015.2
20260510104216 39 0.0 1.0 0.00 0.00 0.00 77 1014.9
20260510103216 39 0.0 0.0 0.00 0.00 0.00 76 1014.9
20260510102216 40 0.0 0.0 0.00 0.00 0.00 75 1014.9
20260510101216 40 0.0 0.0 0.00 0.00 0.00 74 1014.7
20260510100216 40 0.0 0.0 0.00 0.00 0.00 73 1014.6
20260510095216 40 0.0 0.0 0.00 0.00 0.00 72 1014.5
20260510094216 41 0.0 0.0 0.00 0.00 0.00 71 1014.4
20260510093216 41 90 2.0 2.0 0.00 0.00 0.00 70 1014.4
20260510092236 42 0.0 0.0 0.00 0.00 0.00 69 1014.5
20260510091236 42 0.0 1.0 0.00 0.00 0.00 68 1014.5
20260510090216 43 0.0 0.0 0.00 0.00 0.00 66 1014.4
20260510085216 43 0.0 0.0 0.00 0.00 0.00 65 1014.3
20260510084216 44 0.0 0.0 0.00 0.00 0.00 65 1014.2
20260510083236 45 0.0 0.0 0.00 0.00 0.00 65 1014.1
20260510082216 45 0.0 1.0 0.00 0.00 0.00 62 1014.0
20260510081215 46 45 1.0 2.0 0.00 0.00 0.00 62 1013.7
20260510080216 46 45 1.0 2.0 0.00 0.00 0.00 61 1013.6
20260510075236 46 45 2.0 4.0 0.00 0.00 0.00 61 1013.3
20260510074216 47 68 4.0 6.0 0.00 0.00 0.00 60 1013.3
20260510073215 47 68 3.0 5.0 0.00 0.00 0.00 59 1013.3
20260510072216 47 45 3.0 5.0 0.00 0.00 0.00 59 1013.0
20260510071337 47 45 7.0 11.0 0.00 0.00 0.00 60 1012.9
20260510070218 47 45 7.0 10.0 0.00 0.00 0.00 63 1012.8
20260510065218 47 45 4.0 6.0 0.00 0.00 0.00 66 1012.6
20260510064218 47 23 4.0 6.0 0.00 0.00 0.00 67 1012.5
20260510063218 46 45 6.0 11.0 0.00 0.00 0.00 70 1012.4
20260510062238 45 68 3.0 4.0 0.00 0.00 0.00 73 1012.1
20260510061218 45 0 3.0 7.0 0.00 0.00 0.00 73 1012.0
20260510060217 45 225 2.0 3.0 0.00 0.00 0.00 72 1011.7
20260510055217 46 0.0 0.0 0.00 0.00 0.00 72 1011.6
20260510054238 46 0.0 0.0 0.00 0.00 0.00 71 1011.5
20260510053218 46 293 1.0 2.0 0.00 0.00 0.00 71 1011.4
20260510052217 46 0 2.0 3.0 0.00 0.00 0.00 70 1011.1
20260510051221 47 0.0 1.0 0.00 0.00 0.00 70 1011.0
20260510050215 47 0.0 1.0 0.00 0.00 0.00 69 1011.0
20260510045216 48 0.0 0.0 0.00 0.00 0.00 69 1010.8
20260510044216 48 0.0 1.0 0.00 0.00 0.00 68 1010.6
20260510043236 49 0.0 0.0 0.00 0.00 0.00 66 1010.4
20260510042216 49 0.0 1.0 0.00 0.00 0.00 62 1010.3
20260510041216 50 0.0 0.0 0.00 0.00 0.00 61 1010.1
20260510040216 50 0.0 0.0 0.00 0.00 0.00 60 1009.9
20260510035236 51 113 1.0 1.0 0.00 0.00 0.00 59 1009.9
20260510034216 51 0.0 1.0 0.00 0.00 0.00 58 1009.7
20260510033216 52 158 1.0 2.0 0.00 0.00 0.00 56 1009.7
20260510032216 52 0.0 1.0 0.00 0.00 0.00 55 1009.4
20260510031216 53 68 1.0 2.0 0.00 0.00 0.00 54 1009.3
20260510030257 53 68 1.0 1.0 0.00 0.00 0.00 53 1009.3
20260510025216 54 0.0 1.0 0.00 0.00 0.00 52 1009.1
20260510024216 54 90 2.0 4.0 0.00 0.00 0.00 51 1008.8
20260510023216 55 68 2.0 2.0 0.00 0.00 0.00 50 1008.6
20260510022236 55 90 2.0 3.0 0.00 0.00 0.00 49 1008.4
20260510021236 56 90 3.0 4.0 0.00 0.00 0.00 48 1008.2
20260510020216 57 68 2.0 3.0 0.00 0.00 0.00 47 1008.1
20260510015216 58 90 4.0 6.0 0.00 0.00 0.00 46 1007.8
20260510014216 59 68 6.0 10.0 0.00 0.00 0.00 44 1007.5
20260510013216 62 90 5.0 7.0 0.00 0.00 0.00 42 1007.2
20260510012216 64 68 3.0 7.0 0.00 0.00 0.00 40 1007.0
20260510011216 65 315 4.0 6.0 0.00 0.00 0.00 37 1006.7
20260510010216 65 0 3.0 5.0 0.00 0.00 0.00 34 1006.4
20260510005216 66 293 4.0 9.0 0.00 0.00 0.00 34 1006.1
20260510004216 66 293 4.0 5.0 0.00 0.00 0.00 33 1005.9
20260510003216 67 315 10.0 15.0 0.00 0.00 0.00 33 1005.8
20260510002216 68 315 6.0 12.0 0.00 0.00 0.00 32 1005.5
20260510001236 69 293 7.0 13.0 0.00 0.00 0.00 32 1005.3
20260510000216 69 270 9.0 12.0 0.00 0.00 0.00 33 1005.2
20260509235216 70 293 8.0 13.0 0.00 0.00 0.00 32 1004.9
20260509234216 70 270 6.0 10.0 0.00 0.00 0.00 32 1004.8
20260509233218 70 293 5.0 10.0 0.00 0.00 0.00 32 1004.7
20260509232217 71 293 9.0 13.0 0.00 0.00 0.00 31 1004.6
20260509231216 71 270 10.0 13.0 0.00 0.00 0.00 32 1004.4